Location: Carrizalito
(10.3833°N, 67.0217°W)
Time: 15:31:50
(UTC+00:00)

Meteor 1-11 Rocket - Visible Passes

Search period start: 03 July 2022 00:00
Search period end: 13 July 2022 00:00
Orbit: 831 x 915 km, 81.2° (Epoch: 02 July)

Date Brightness Start Highest point End Pass type
(mag) Time Alt. Az. Time Alt. Az. Time Alt. Az.
03 Jul 6.4 07:29:37 10° SE 07:32:47 15° E 07:35:56 10° ENE visible
03 Jul 4.3 09:11:05 14° SSW 09:15:46 41° W 09:21:20 10° NNW visible
04 Jul 6.3 07:24:14 10° SE 07:27:32 16° E 07:30:57 10° NE visible
04 Jul 4.4 09:06:47 19° SW 09:10:32 38° W 09:16:01 10° NNW visible
05 Jul 6.2 07:19:54 14° ESE 07:22:16 17° E 07:25:57 10° NE visible
05 Jul 4.4 09:02:26 23° SW 09:05:18 36° W 09:10:42 10° NNW visible
06 Jul 6.0 07:15:30 17° ESE 07:17:01 18° E 07:20:55 10° NE visible
06 Jul 4.5 08:58:02 27° WSW 09:00:04 34° W 09:05:22 10° NNW visible
07 Jul 5.9 07:11:03 19° ESE 07:11:46 19° E 07:15:51 10° NE visible
07 Jul 4.6 08:53:36 29° WSW 08:54:50 32° W 09:00:02 10° NNW visible
08 Jul 5.9 07:06:34 21° E 07:06:34 21° E 07:10:47 10° NE visible
08 Jul 4.6 08:49:06 29° W 08:49:36 30° W 08:54:42 10° NNW visible
09 Jul 5.9 07:02:02 21° E 07:02:02 21° E 07:05:42 10° NE visible
09 Jul 4.8 08:44:34 28° W 08:44:34 28° W 08:49:21 10° NNW visible
10 Jul 5.9 06:57:28 21° ENE 06:57:28 21° ENE 07:00:35 10° NE visible
10 Jul 5.0 08:40:00 25° WNW 08:40:00 25° WNW 08:43:59 10° NNW visible
11 Jul 6.0 06:52:52 21° ENE 06:52:52 21° ENE 06:55:28 10° NE visible
11 Jul 5.2 08:35:23 22° WNW 08:35:23 22° WNW 08:38:36 10° NNW visible
12 Jul 6.1 06:48:13 19° NE 06:48:13 19° NE 06:50:21 10° NE visible
12 Jul 5.4 08:30:45 19° NW 08:30:45 19° NW 08:33:13 10° NNW visible
